Location: Passau
(48.5830°N, 13.4830°E)
Time: 23:56:44
(UTC+02:00)

N. Korean satellite - Pass Details

Date: 04 October 2021
Orbit: 450 x 494 km, 97.3° (Epoch: 28 October)

Event Time Altitude Azimuth Distance (km) Brightness Sun altitude
Rises 05:58:07 0° 20° (NNE) 2,559 10.6 -12.7°
Reaches altitude 10° 06:00:18 10° 29° (NNE) 1,681 9.8 -12.3°
Maximum altitude 06:03:39 36° 97° (E) 799 8.4 -11.8°
Drops below altitude 10° 06:07:02 10° 165° (SSE) 1,685 9.4 -11.2°
Sets 06:09:13 0° 175° (S) 2,565 10.2 -10.8°
